{"data":{"norad_id":67532,"epoch":"2026-05-25T03:31:09.965568Z","epoch_age_seconds":63117,"freshness":"FRESH","line1":"1 67532U 26014A   26145.14664312  .00014306  00000+0  44443-3 0  9996","line2":"2 67532  97.2855  32.2388 0001397  90.7148 269.4255 15.33459318 20508","mean_motion":15.33459318,"eccentricity":0.0001397,"inclination_deg":97.2855,"raan_deg":32.2388,"arg_perigee_deg":90.7148,"mean_anomaly_deg":269.4255,"bstar":0.00044443,"rev_number":2050,"period_min":93.905327849069,"perigee_km":464.54451834601,"apogee_km":466.45663068433,"semimajor_km":6843.6375745152,"source":"CELESTRAK","updated_at":"2026-05-25T13:38:21.605116Z"}}